When you browse on this site, cookies collect data to enhance your experience and personalize the content and advertising you see.
Visit our Privacy Policy to learn more. By continuing to use the site, you agree to this use of cookies and data.
  • In België
  • Catalogus van Landen
  • 7 dagen
  • Watertemperatuur
  • Satellietkaart
  • Weerkaart
  • Widgets
  • user-avatar
    Invoeren

    Per Uur in Podewsie

    Vandaag, 17 Januari, Donderdag

    Tijd Temperatuur Common.rainfall Wind versnelling Luchtdruk Luchtvochtigheid
    00:00 +1°C° 0 mm 3 m/s 741 mmHg 80%
    01:00 +2°C° 0 mm 2 m/s 740 mmHg 82%
    02:00 +2°C° 0 mm 3 m/s 740 mmHg 78%
    03:00 +1°C° 0 mm 4 m/s 739 mmHg 74%
    04:00 +1°C° 0 mm 5 m/s 739 mmHg 70%
    05:00 +1°C° 0 mm 5 m/s 739 mmHg 71%
    06:00 +1°C° 0 mm 4 m/s 739 mmHg 71%
    07:00 +1°C° 0 mm 4 m/s 739 mmHg 72%
    08:00 +2°C° 0 mm 5 m/s 739 mmHg 72%
    09:00 +2°C° 0 mm 5 m/s 739 mmHg 72%
    10:00 +3°C° 0 mm 5 m/s 740 mmHg 72%
    11:00 +3°C° 0 mm 5 m/s 739 mmHg 71%
    12:00 +5°C° 0 mm 4 m/s 739 mmHg 70%
    13:00 +6°C° 0 mm 4 m/s 739 mmHg 69%
    14:00 +5°C° 0 mm 3 m/s 739 mmHg 72%
    15:00 +5°C° 0 mm 3 m/s 739 mmHg 75%
    16:00 +5°C° 0 mm 3 m/s 739 mmHg 78%
    17:00 +4°C° 0.1 mm 3 m/s 739 mmHg 80%
    18:00 +4°C° 0.1 mm 3 m/s 739 mmHg 81%
    19:00 +4°C° 0.1 mm 3 m/s 739 mmHg 83%
    20:00 +4°C° 0 mm 4 m/s 739 mmHg 80%
    21:00 +4°C° 0 mm 4 m/s 739 mmHg 78%
    22:00 +3°C° 0 mm 5 m/s 739 mmHg 75%
    23:00 +2°C° 0.1 mm 6 m/s 740 mmHg 74%

    Morgen, 18 Januari, Vrijdag

    Tijd Temperatuur Common.rainfall Wind versnelling Luchtdruk Luchtvochtigheid
    00:00 +2°C° 0.1 mm 6 m/s 740 mmHg 73%
    01:00 +2°C° 0.1 mm 7 m/s 740 mmHg 73%
    02:00 0°C° 0 mm 7 m/s 741 mmHg 74%
    03:00 -1°C° 0 mm 7 m/s 742 mmHg 74%
    04:00 -2°C° 0 mm 7 m/s 742 mmHg 75%
    05:00 -2°C° 0 mm 6 m/s 743 mmHg 77%
    06:00 -2°C° 0 mm 6 m/s 743 mmHg 78%
    07:00 -2°C° 0 mm 5 m/s 744 mmHg 80%
    08:00 -3°C° 0 mm 6 m/s 745 mmHg 77%
    09:00 -3°C° 0 mm 7 m/s 746 mmHg 73%
    10:00 -3°C° 0 mm 7 m/s 747 mmHg 70%
    11:00 -3°C° 0 mm 7 m/s 748 mmHg 67%
    12:00 -2°C° 0 mm 7 m/s 748 mmHg 65%
    13:00 -2°C° 0 mm 6 m/s 749 mmHg 63%
    14:00 -2°C° 0 mm 5 m/s 750 mmHg 64%
    15:00 -2°C° 0 mm 4 m/s 750 mmHg 66%
    16:00 -1°C° 0 mm 3 m/s 751 mmHg 67%
    17:00 -2°C° 0 mm 3 m/s 751 mmHg 70%
    18:00 -2°C° 0 mm 3 m/s 752 mmHg 73%
    19:00 -4°C° 0 mm 3 m/s 752 mmHg 76%
    20:00 -4°C° 0 mm 3 m/s 752 mmHg 76%
    21:00 -4°C° 0 mm 3 m/s 753 mmHg 77%
    22:00 -3°C° 0 mm 2 m/s 753 mmHg 77%
    23:00 -3°C° 0 mm 2 m/s 753 mmHg 74%

    Overmorgen, 19 Januari, Zaterdag

    Tijd Temperatuur Common.rainfall Wind versnelling Luchtdruk Luchtvochtigheid
    00:00 -3°C° 0 mm 2 m/s 753 mmHg 71%
    01:00 -3°C° 0 mm 2 m/s 753 mmHg 68%
    02:00 -2°C° 0 mm 2 m/s 753 mmHg 67%
    03:00 -2°C° 0 mm 2 m/s 753 mmHg 67%
    04:00 -2°C° 0 mm 2 m/s 753 mmHg 66%
    05:00 -2°C° 0 mm 2 m/s 753 mmHg 67%
    06:00 -2°C° 0 mm 2 m/s 753 mmHg 68%
    07:00 -2°C° 0 mm 2 m/s 753 mmHg 69%
    08:00 -2°C° 0 mm 2 m/s 753 mmHg 67%
    09:00 +1°C° 0 mm 1 m/s 753 mmHg 65%
    10:00 +1°C° 0 mm 1 m/s 753 mmHg 62%
    11:00 +2°C° 0 mm 1 m/s 753 mmHg 60%
    12:00 +3°C° 0 mm 1 m/s 753 mmHg 58%
    13:00 +3°C° 0 mm 1 m/s 753 mmHg 56%
    14:00 +2°C° 0 mm 1 m/s 752 mmHg 59%
    15:00 +2°C° 0 mm 1 m/s 752 mmHg 62%
    16:00 +1°C° 0 mm 1 m/s 752 mmHg 65%
    17:00 +1°C° 0 mm 1 m/s 752 mmHg 66%
    18:00 -2°C° 0 mm 2 m/s 752 mmHg 66%
    19:00 -2°C° 0 mm 2 m/s 752 mmHg 67%
    20:00 -2°C° 0 mm 2 m/s 752 mmHg 65%
    21:00 -3°C° 0 mm 2 m/s 751 mmHg 64%
    22:00 -3°C° 0 mm 2 m/s 751 mmHg 63%
    23:00 -3°C° 0 mm 2 m/s 751 mmHg 62%

    20 Januari, Zondag

    Tijd Temperatuur Common.rainfall Wind versnelling Luchtdruk Luchtvochtigheid
    00:00 -1°C° 0 mm 1 m/s 751 mmHg 62%
    01:00 -1°C° 0 mm 1 m/s 751 mmHg 61%
    02:00 -1°C° 0 mm 1 m/s 751 mmHg 62%
    03:00 -1°C° 0 mm 1 m/s 750 mmHg 62%
    04:00 -2°C° 0 mm 1 m/s 750 mmHg 62%
    05:00 -2°C° 0 mm 1 m/s 750 mmHg 63%
    06:00 -2°C° 0 mm 1 m/s 750 mmHg 63%
    07:00 -2°C° 0 mm 1 m/s 750 mmHg 64%
    08:00 -1°C° 0 mm 1 m/s 750 mmHg 61%
    09:00 -2°C° 0 mm 0 m/s 750 mmHg 58%
    10:00 -1°C° 0 mm 0 m/s 751 mmHg 56%
    11:00 -1°C° 0 mm 0 m/s 751 mmHg 53%
    12:00 0°C° 0 mm 0 m/s 750 mmHg 50%
    13:00 +2°C° 0 mm 1 m/s 750 mmHg 47%
    14:00 +1°C° 0 mm 1 m/s 750 mmHg 50%
    15:00 0°C° 0 mm 1 m/s 750 mmHg 52%
    16:00 0°C° 0 mm 1 m/s 751 mmHg 54%
    17:00 -1°C° 0 mm 1 m/s 751 mmHg 55%
    18:00 -1°C° 0 mm 1 m/s 751 mmHg 57%
    19:00 -2°C° 0 mm 0 m/s 751 mmHg 58%
    20:00 -2°C° 0 mm 0 m/s 752 mmHg 58%
    21:00 -2°C° 0 mm 0 m/s 752 mmHg 58%
    22:00 -3°C° 0 mm 0 m/s 753 mmHg 58%
    23:00 -3°C° 0 mm 0 m/s 753 mmHg 58%

    21 Januari, Maandag

    Tijd Temperatuur Common.rainfall Wind versnelling Luchtdruk Luchtvochtigheid
    00:00 -3°C° 0 mm 0 m/s 753 mmHg 58%
    01:00 -3°C° 0 mm 0 m/s 753 mmHg 58%
    02:00 -3°C° 0 mm 0 m/s 753 mmHg 59%
    03:00 -3°C° 0 mm 0 m/s 753 mmHg 59%
    04:00 -3°C° 0 mm 0 m/s 753 mmHg 59%
    05:00 -2°C° 0 mm 1 m/s 753 mmHg 59%
    06:00 -3°C° 0 mm 1 m/s 753 mmHg 59%
    07:00 -3°C° 0 mm 1 m/s 753 mmHg 59%
    08:00 -4°C° 0 mm 2 m/s 753 mmHg 56%
    09:00 -4°C° 0 mm 2 m/s 753 mmHg 53%
    10:00 -3°C° 0 mm 2 m/s 753 mmHg 50%
    11:00 -2°C° 0 mm 3 m/s 753 mmHg 46%
    12:00 -1°C° 0 mm 3 m/s 753 mmHg 42%
    13:00 -1°C° 0 mm 3 m/s 752 mmHg 38%
    14:00 -1°C° 0 mm 3 m/s 752 mmHg 41%
    15:00 -1°C° 0 mm 3 m/s 752 mmHg 43%
    16:00 -2°C° 0 mm 3 m/s 751 mmHg 46%
    17:00 -2°C° 0 mm 3 m/s 751 mmHg 49%
    18:00 -4°C° 0 mm 3 m/s 751 mmHg 52%
    19:00 -4°C° 0 mm 4 m/s 751 mmHg 55%
    20:00 -4°C° 0 mm 3 m/s 751 mmHg 56%
    21:00 -5°C° 0 mm 3 m/s 751 mmHg 57%
    22:00 -5°C° 0 mm 3 m/s 751 mmHg 58%
    23:00 -5°C° 0 mm 3 m/s 750 mmHg 59%

    22 Januari, Dinsdag

    Tijd Temperatuur Common.rainfall Wind versnelling Luchtdruk Luchtvochtigheid
    00:00 -5°C° 0 mm 3 m/s 750 mmHg 59%
    01:00 -5°C° 0 mm 3 m/s 750 mmHg 59%
    02:00 -5°C° 0 mm 3 m/s 749 mmHg 60%
    03:00 -5°C° 0 mm 3 m/s 749 mmHg 60%
    04:00 -6°C° 0 mm 3 m/s 748 mmHg 61%
    05:00 -6°C° 0 mm 3 m/s 748 mmHg 61%
    06:00 -6°C° 0 mm 3 m/s 748 mmHg 61%
    07:00 -6°C° 0 mm 3 m/s 747 mmHg 62%
    08:00 -5°C° 0 mm 3 m/s 747 mmHg 60%
    09:00 -5°C° 0 mm 3 m/s 747 mmHg 58%
    10:00 -4°C° 0 mm 3 m/s 747 mmHg 56%
    11:00 -2°C° 0 mm 3 m/s 746 mmHg 55%
    12:00 -2°C° 0 mm 3 m/s 746 mmHg 54%
    13:00 -1°C° 0 mm 3 m/s 745 mmHg 53%
    14:00 -1°C° 0 mm 3 m/s 745 mmHg 55%
    15:00 -2°C° 0 mm 3 m/s 745 mmHg 57%
    16:00 -2°C° 0 mm 3 m/s 744 mmHg 59%
    17:00 -4°C° 0 mm 3 m/s 744 mmHg 60%
    18:00 -4°C° 0 mm 3 m/s 745 mmHg 62%
    19:00 -5°C° 0 mm 3 m/s 745 mmHg 63%
    20:00 -5°C° 0 mm 3 m/s 745 mmHg 66%
    21:00 -4°C° 0 mm 2 m/s 745 mmHg 68%
    22:00 -4°C° 0 mm 2 m/s 745 mmHg 71%
    23:00 -5°C° 0 mm 2 m/s 744 mmHg 73%
    Meer weergeven